Torna al catalogo

STARLINK-33835

AttivoComunicazioniVLEO
NORAD 63645·PAYLOAD·🇺🇸 United States

Lanciato Apr 25, 2025 da Cape Canaveral Space Force Station

Loading…

Prossimi Passaggi (prossime 24 ore)

TLE

AggiornatoSource: CelesTrak SupGP

Epoca: Sep 15, 2026, 02:48 UTC

1 63645C 25083M   26258.11715278  .00008683  00000+0  31446-3 0  2580
2 63645  43.0034  15.4924 0001688 263.5462 197.3310 15.27575792    11

Traccia STARLINK-33835 in tempo reale con AllMySat

Download on the App Store